COSMOS 2160

Satellite information

Favourite Embed

Satellite Type and Status

PAYLOADIN ORBIT

Key statistics

Satellite COSMOS 2160 at a glance.

Uptime

12399

Days in orbit

Revolutions

≈ 12.6

Per day

Orbit

LEO

Low Earth Orbit

Inclination

82.6

Latest

Satellite identification and parameters

Extended collection of information and parameters for COSMOS 2160.

Object identification

Identified? True

Debris? False

Object name: COSMOS 2160

International designator: 1991-068D

Object number (NORAD): 21731

Object ID (CCSDS): 21731

Country: COMMONWEALTH OF INDEPENDENT STATES (CIS)

Current information (Y/N): Y

RCS size: MEDIUM

Orbital parameters

Period: 113.861 minutes

Inclination: 82.5859 deg

SMA: 7781.754 km

Apoapsis: 1409.894 km

Periapsis: 1397.344 km

RAAN: 125.0652 deg

Eccentricy: 0.00080638

Argument of periapsis: 298.4134 deg

Mean anomaly: 71.4296 deg

Mean motion: 12.64696972 rev/day

Mean motion (dot): 0.00000045 rev/day2

B* drag term: 0.00018396691 1/REarth

Two-line elements (TLE)

Creation date: Sept. 8, 2025, 3:16 a.m.

Reference frame: TEME

Reference center: EARTH

Epoch: Sept. 7, 2025, 10:11 p.m. UTC

TLE line 0: 0 COSMOS 2160

TLE line 1: 1 21731U 91068D 25250.92443756 .00000045 00000-0 18397-3 0 9992

TLE line 2: 2 21731 82.5859 125.0652 0008064 298.4134 71.4296 12.64696972566854

Live tracking on map

Real-time ground track for satellite COSMOS 2160.

In-orbit conjunctions

There are no conjunctions computed for COSMOS 2160, at the moment. Check back to stay up to date, as we update our databases every day.

Go to all conjunctions

Associated space launch

Second generation store-dump military communications satellite

COSMOS 2160 was lifted into orbit during the mission ‘Tsiklon-3 | Strela-3 67 to 72’, on board a Tsiklon-3 space rocket.

The launch took place on Sept. 28, 1991, 7:05 a.m. from 32/2.

For more information about the launch, click the button.

Launch to space Tsiklon-3 | Strela-3 67 to 72
Tsiklon-3 | Strela-3 67 to 72

Agency: N/A

Status: Launch Successful

Launch date: Sept. 28, 1991, 7:05 a.m. UTC

Rocket: Tsiklon-3

Launch pad: 32/2

Location: Plesetsk Cosmodrome, Russian Federation

...

Latest news about this satellite

There are no fresh news available about this satellite. Check back as we update our databases every day.


Newsletter sign-up

Weekly statistics, charts and insights to help you stay on top of the space industry.